Back to catalog

ARIANE 5 R/B

AliveHEO
NORAD 36746·ROCKET BODY·🇫🇷 France

Launched Jun 26, 2010 from Guiana Space Centre

Loading…

Next Passes (next 24 hours)

TLE

FreshSource: Space-Track

Epoch: Sep 14, 2026, 10:23 UTC

1 36746U 10032C   26257.43317055  .00003374  00000-0  96114-3 0  9993
2 36746   1.7450 315.8516 7039059  47.2814 353.4093  2.58769128143804

Track ARIANE 5 R/B in real time with AllMySat

Download on the App Store